Location: B�retswil
(47.3376°N, 8.8534°E)
Time: 00:11:26
(UTC+00:00)

Cosmos 2333 Rocket - Pass Details

Date: 03 March 2021
Orbit: 837 x 864 km, 70.8° (Epoch: 20 April)

Event Time Altitude Azimuth Distance (km) Brightness Sun altitude
Rises 18:47:03 0° 183° (S) 3,385 5.3 -16.7°
Reaches altitude 10° 18:49:35 10° 177° (S) 2,458 4.5 -17.1°
Maximum altitude 18:54:51 42° 108° (ESE) 1,196 2.5 -18.0°
Drops below altitude 10° 19:00:11 10° 39° (NE) 2,492 4.4 -18.9°
Sets 19:02:46 0° 33° (NNE) 3,436 5.2 -19.3°
